Flag for Germany Weather past 2 weeks in Augsburg, Bavaria, Germany

Now
90 °F

Sunny.


Feels Like: 90 °F
Forecast: 66 / 87 °F
Wind: 2 mph from North

Location: Augsburg Airport

Current Time: Aug 30, 2015 at 2:52:43 PM

Latest Report: Aug 30, 2015 at 2:20 PM


Visibility: 10 mi

Pressure: 30.12 "Hg

Humidity: 41%

Dew point: 63 °F

Location of AugsburgLocation

Historic Weather in Augsburg — Graph

°F

Augsburg temperature yesterday

Maximum temperature yesterday: 90 °F (at 4:20 PM)
Minimum temperature yesterday: 55 °F (at 6:50 AM)
Average temperature yesterday: 80 °F

Past Weeks' High & Low Weather Summary

 TemperatureHumidityPressure
High90 °F (Aug 29, 4:20 PM)100% (Aug 15, 6:50 PM)30.30 "Hg (Aug 15, 6:50 PM)
Low45 °F (Aug 26, 6:20 AM)27% (Aug 22, 4:20 PM)29.74 "Hg (Aug 24, 2:20 PM)
Average68 °F64%30.04 "Hg
* Reported Aug 15 1:20 PM — Aug 30 1:20 PM, Augsburg, Weather by CustomWeather, © 2015

Note: Actual official high and low records may vary slightly from our data, if they occured in-between our weather recording intervals... More about our weather records

Advertising

Augsburg weather history for previous 24 hours

 ConditionsComfort  
Time TempWeatherWind HumidityBarometerVisibility
1:20 PM
Sun, Aug 30
86 °FSunny.3 mph40%30.12 "Hg10 mi
12:50 PM84 °FSunny.5 mph48%30.15 "Hg10 mi
12:20 PM84 °FPassing clouds.5 mph45%30.15 "HgN/A
11:50 AM82 °FPassing clouds.6 mph51%30.15 "HgN/A
11:20 AM82 °FPassing clouds.7 mph48%30.15 "HgN/A
10:50 AM81 °FPassing clouds.8 mph54%30.15 "HgN/A
10:20 AM79 °FPassing clouds.8 mph54%30.15 "HgN/A
9:50 AM77 °FSunny.8 mph57%30.15 "Hg10 mi
9:20 AM75 °FPassing clouds.5 mph61%30.15 "HgN/A
8:50 AM72 °FSunny.2 mph69%30.15 "Hg10 mi
8:50 PM
Sat, Aug 29
72 °FSunny.1 mph69%30.15 "Hg10 mi
8:20 PM73 °FSunny.1 mph69%30.12 "Hg10 mi
7:50 PM82 °FSunny.3 mph45%30.12 "Hg10 mi
7:20 PM86 °FSunny.6 mph38%30.12 "Hg10 mi
6:50 PM88 °FSunny.6 mph33%30.15 "Hg10 mi
6:20 PM88 °FPassing clouds.7 mph33%30.15 "HgN/A
5:50 PM88 °FPassing clouds.5 mph35%30.15 "HgN/A
5:20 PM88 °FPassing clouds.5 mph33%30.15 "HgN/A
4:50 PM88 °FSunny.2 mph33%30.18 "Hg10 mi
4:20 PM90 °FSunny.3 mph31%30.18 "Hg10 mi
3:50 PM88 °FSunny.2 mph33%30.18 "Hg10 mi
3:20 PM88 °FSunny.3 mph35%30.18 "Hg10 mi
2:50 PM88 °FPassing clouds.3 mph38%30.21 "HgN/A
2:20 PM86 °FSunny.3 mph40%30.21 "Hg10 mi
Weather by CustomWeather, © 2015

See weather overviewHow to use our weather pages